When you browse on this site, cookies collect data to enhance your experience and personalize the content and advertising you see.
Visit our Privacy Policy to learn more. By continuing to use the site, you agree to this use of cookies and data.
  • En España
  • Lista de países
  • Para 7 días
  • Temperatura del agua
  • El tiempo en el mapa
  • Informadores
  • user-avatar
    Iniciar sesión

    Tiempo cada hora Jarim

    Hoy, 18 Noviembre, Lunes

    Tiempo Temperatura Precipitaciones Viento Presión Humedad
    00:00 +12°C° 0 mm 1 mps 552 mmHg 81%
    01:00 +12°C° 0 mm 1 mps 552 mmHg 82%
    02:00 +12°C° 0 mm 1 mps 551 mmHg 83%
    03:00 +11°C° 0 mm 1 mps 551 mmHg 85%
    04:00 +11°C° 0 mm 1 mps 551 mmHg 84%
    05:00 +10°C° 0 mm 0 mps 551 mmHg 84%
    06:00 +9°C° 0 mm 0 mps 551 mmHg 83%
    07:00 +12°C° 0 mm 1 mps 552 mmHg 72%
    08:00 +14°C° 0 mm 1 mps 553 mmHg 62%
    09:00 +16°C° 0 mm 1 mps 555 mmHg 49%
    10:00 +17°C° 0 mm 2 mps 555 mmHg 45%
    11:00 +18°C° 0 mm 2 mps 555 mmHg 40%
    12:00 +19°C° 0 mm 2 mps 556 mmHg 36%
    13:00 +19°C° 0 mm 3 mps 555 mmHg 37%
    14:00 +19°C° 0 mm 3 mps 555 mmHg 37%
    15:00 +20°C° 0 mm 4 mps 554 mmHg 38%
    16:00 +18°C° 0 mm 3 mps 554 mmHg 43%
    17:00 +17°C° 0 mm 2 mps 554 mmHg 48%
    18:00 +16°C° 0 mm 2 mps 553 mmHg 53%
    19:00 +16°C° 0.1 mm 2 mps 553 mmHg 56%
    20:00 +15°C° 0.1 mm 1 mps 553 mmHg 59%
    21:00 +15°C° 0.1 mm 1 mps 553 mmHg 63%
    22:00 +14°C° 0 mm 1 mps 553 mmHg 63%
    23:00 +14°C° 0 mm 1 mps 553 mmHg 64%

    Mañana, 19 Noviembre, Martes

    Tiempo Temperatura Precipitaciones Viento Presión Humedad
    00:00 +13°C° 0 mm 1 mps 553 mmHg 64%
    01:00 +13°C° 0 mm 1 mps 552 mmHg 66%
    02:00 +12°C° 0 mm 0 mps 552 mmHg 68%
    03:00 +11°C° 0 mm 0 mps 551 mmHg 70%
    04:00 +11°C° 0 mm 0 mps 551 mmHg 70%
    05:00 +11°C° 0 mm 0 mps 552 mmHg 71%
    06:00 +10°C° 0 mm 0 mps 552 mmHg 72%
    07:00 +12°C° 0 mm 0 mps 553 mmHg 62%
    08:00 +15°C° 0 mm 1 mps 554 mmHg 52%
    09:00 +18°C° 0 mm 1 mps 555 mmHg 43%
    10:00 +18°C° 0 mm 2 mps 555 mmHg 40%
    11:00 +19°C° 0 mm 2 mps 555 mmHg 38%
    12:00 +20°C° 0 mm 3 mps 555 mmHg 35%
    13:00 +19°C° 0 mm 3 mps 555 mmHg 38%
    14:00 +19°C° 0 mm 4 mps 554 mmHg 41%
    15:00 +19°C° 0 mm 4 mps 554 mmHg 45%
    16:00 +18°C° 0 mm 4 mps 553 mmHg 50%
    17:00 +17°C° 0 mm 3 mps 553 mmHg 56%
    18:00 +16°C° 0 mm 3 mps 553 mmHg 62%
    19:00 +15°C° 0 mm 2 mps 553 mmHg 66%
    20:00 +15°C° 0 mm 1 mps 553 mmHg 70%
    21:00 +14°C° 0 mm 1 mps 553 mmHg 74%
    22:00 +14°C° 0 mm 1 mps 553 mmHg 76%
    23:00 +13°C° 0 mm 0 mps 552 mmHg 78%

    Pasado mañana, 20 Noviembre, Miércoles

    Tiempo Temperatura Precipitaciones Viento Presión Humedad
    00:00 +12°C° 0 mm 0 mps 552 mmHg 80%
    01:00 +12°C° 0.1 mm 0 mps 552 mmHg 81%
    02:00 +12°C° 0.1 mm 0 mps 551 mmHg 83%
    03:00 +11°C° 0.1 mm 0 mps 551 mmHg 84%
    04:00 +11°C° 0 mm 0 mps 551 mmHg 84%
    05:00 +10°C° 0 mm 0 mps 551 mmHg 83%
    06:00 +10°C° 0 mm 0 mps 551 mmHg 83%
    07:00 +12°C° 0 mm 0 mps 552 mmHg 74%
    08:00 +14°C° 0 mm 1 mps 553 mmHg 65%
    09:00 +16°C° 0 mm 1 mps 554 mmHg 56%
    10:00 +17°C° 0 mm 2 mps 554 mmHg 51%
    11:00 +18°C° 0 mm 2 mps 554 mmHg 46%
    12:00 +19°C° 0 mm 3 mps 554 mmHg 42%
    13:00 +19°C° 0.1 mm 3 mps 553 mmHg 46%
    14:00 +18°C° 0.1 mm 4 mps 553 mmHg 50%
    15:00 +17°C° 0.1 mm 5 mps 552 mmHg 53%
    16:00 +17°C° 0.1 mm 4 mps 552 mmHg 59%
    17:00 +16°C° 0.1 mm 3 mps 552 mmHg 65%
    18:00 +15°C° 0.1 mm 2 mps 552 mmHg 71%
    19:00 +15°C° 0.2 mm 2 mps 552 mmHg 73%
    20:00 +15°C° 0.2 mm 1 mps 552 mmHg 76%
    21:00 +14°C° 0.2 mm 1 mps 552 mmHg 78%
    22:00 +14°C° 0.3 mm 1 mps 552 mmHg 76%
    23:00 +14°C° 0.3 mm 1 mps 552 mmHg 74%

    21 Noviembre, Jueves

    Tiempo Temperatura Precipitaciones Viento Presión Humedad
    00:00 +14°C° 0.3 mm 1 mps 552 mmHg 72%
    01:00 +14°C° 0.2 mm 1 mps 551 mmHg 72%
    02:00 +13°C° 0.2 mm 1 mps 551 mmHg 72%
    03:00 +13°C° 0.2 mm 1 mps 551 mmHg 71%
    04:00 +13°C° 0.1 mm 1 mps 551 mmHg 73%
    05:00 +12°C° 0.1 mm 1 mps 551 mmHg 74%
    06:00 +12°C° 0.1 mm 1 mps 551 mmHg 75%
    07:00 +13°C° 0.1 mm 2 mps 552 mmHg 71%
    08:00 +14°C° 0.1 mm 2 mps 553 mmHg 67%
    09:00 +15°C° 0.1 mm 2 mps 554 mmHg 62%
    10:00 +16°C° 0.1 mm 3 mps 554 mmHg 58%
    11:00 +16°C° 0.1 mm 3 mps 554 mmHg 54%
    12:00 +17°C° 0.1 mm 3 mps 554 mmHg 50%
    13:00 +17°C° 0.2 mm 3 mps 553 mmHg 52%
    14:00 +17°C° 0.2 mm 3 mps 553 mmHg 53%
    15:00 +16°C° 0.2 mm 3 mps 552 mmHg 55%
    16:00 +14°C° 0.4 mm 3 mps 552 mmHg 60%
    17:00 +15°C° 0.4 mm 2 mps 552 mmHg 66%
    18:00 +14°C° 0.4 mm 2 mps 552 mmHg 72%
    19:00 +14°C° 0.2 mm 2 mps 552 mmHg 73%
    20:00 +13°C° 0.2 mm 2 mps 552 mmHg 75%
    21:00 +13°C° 0.2 mm 2 mps 552 mmHg 76%
    22:00 +12°C° 0 mm 2 mps 552 mmHg 78%
    23:00 +12°C° 0 mm 2 mps 552 mmHg 79%

    22 Noviembre, Viernes

    Tiempo Temperatura Precipitaciones Viento Presión Humedad
    00:00 +12°C° 0 mm 1 mps 552 mmHg 81%
    01:00 +12°C° 0 mm 1 mps 552 mmHg 80%
    02:00 +10°C° 0 mm 2 mps 551 mmHg 80%
    03:00 +10°C° 0 mm 2 mps 551 mmHg 79%
    04:00 +10°C° 0 mm 2 mps 551 mmHg 79%
    05:00 +9°C° 0 mm 2 mps 551 mmHg 80%
    06:00 +9°C° 0 mm 2 mps 551 mmHg 80%
    07:00 +10°C° 0 mm 2 mps 552 mmHg 71%
    08:00 +13°C° 0 mm 2 mps 553 mmHg 62%
    09:00 +14°C° 0 mm 2 mps 554 mmHg 54%
    10:00 +15°C° 0 mm 2 mps 554 mmHg 49%
    11:00 +17°C° 0 mm 2 mps 555 mmHg 44%
    12:00 +18°C° 0 mm 3 mps 555 mmHg 40%
    13:00 +18°C° 0 mm 3 mps 554 mmHg 42%
    14:00 +17°C° 0 mm 3 mps 554 mmHg 44%
    15:00 +17°C° 0 mm 4 mps 553 mmHg 46%
    16:00 +16°C° 0.1 mm 3 mps 553 mmHg 50%
    17:00 +16°C° 0.1 mm 3 mps 553 mmHg 55%
    18:00 +15°C° 0.1 mm 2 mps 553 mmHg 59%
    19:00 +13°C° 0.1 mm 3 mps 553 mmHg 62%
    20:00 +13°C° 0.1 mm 3 mps 553 mmHg 66%
    21:00 +12°C° 0.1 mm 3 mps 553 mmHg 69%
    22:00 +13°C° 0 mm 2 mps 553 mmHg 70%
    23:00 +12°C° 0 mm 2 mps 552 mmHg 72%

    23 Noviembre, Sábado

    Tiempo Temperatura Precipitaciones Viento Presión Humedad
    00:00 +12°C° 0 mm 2 mps 552 mmHg 74%
    01:00 +10°C° 0 mm 2 mps 552 mmHg 75%
    02:00 +10°C° 0 mm 2 mps 551 mmHg 77%
    03:00 +9°C° 0 mm 2 mps 551 mmHg 78%
    04:00 +9°C° 0 mm 2 mps 551 mmHg 78%
    05:00 +9°C° 0 mm 2 mps 551 mmHg 79%
    06:00 +9°C° 0 mm 2 mps 551 mmHg 79%
    07:00 +11°C° 0 mm 1 mps 552 mmHg 70%
    08:00 +13°C° 0 mm 1 mps 554 mmHg 61%
    09:00 +15°C° 0 mm 1 mps 555 mmHg 51%
    10:00 +16°C° 0 mm 1 mps 555 mmHg 47%
    11:00 +17°C° 0 mm 2 mps 555 mmHg 43%
    12:00 +18°C° 0 mm 2 mps 555 mmHg 39%
    13:00 +18°C° 0 mm 3 mps 555 mmHg 41%
    14:00 +18°C° 0 mm 3 mps 554 mmHg 43%
    15:00 +18°C° 0 mm 3 mps 554 mmHg 45%
    16:00 +17°C° 0.1 mm 3 mps 554 mmHg 52%
    17:00 +16°C° 0.1 mm 2 mps 553 mmHg 59%
    18:00 +15°C° 0.1 mm 2 mps 553 mmHg 66%
    19:00 +15°C° 0.2 mm 2 mps 553 mmHg 67%
    20:00 +13°C° 0.2 mm 3 mps 553 mmHg 69%
    21:00 +13°C° 0.2 mm 3 mps 553 mmHg 70%
    22:00 +13°C° 0 mm 2 mps 553 mmHg 70%
    23:00 +13°C° 0 mm 2 mps 553 mmHg 70%
    Mostrar más